Regional Weather Roundup
Issued by NWS

Home | Current Version | Previous Version | Graphics & Text | Print | Product List | Glossary Off
Versions: 1 2 3 4 5 6 7 8 9 10 11 12 13 14 15 16 17 18 19 20 21 22 23 24 25 26 27 28 29 30 31 32 33 34 35 36 37 38 39 40 41 42 43 44 45 46 47 48 49 50

000
ASUS43 KDMX 210806
RWRIA

WEATHER ROUNDUP FOR IOWA
NATIONAL WEATHER SERVICE DES MOINES IA
300 AM CDT THU SEP 21 2017

NOTE: "FAIR" INDICATES FEW OR NO CLOUDS BELOW 12,000 FEET WITH NO
SIGNIFICANT WEATHER AND/OR OBSTRUCTIONS TO VISIBILITY.

* - THESE STATIONS ARE NOT NWS STATIONS...THUS NOT UNDER NWS
QUALITY CONTROL.  THEY ALSO DO NOT REPORT WEATHER SUCH
AS PRECIPITATION OR FOG.

IAZ001>003-012>014-020>022-031>034-043>046-210900-
   NORTHWEST IOWA

CITY           SKY/WX    TMP DP  RH WIND       PRES   REMARKS
CARROLL *      MOCLDY    55  55 100 CALM      29.93F
CHEROKEE *     CLEAR     51  51  99 NE3       29.94F
DENISON *      CLEAR     57  54  88 E6        29.93F
LE MARS *      CLEAR     50  48  93 N8        29.92F
ORANGE CITY *  CLEAR     57  52  82 E7        29.94S
SHELDON *      CLEAR     52  48  87 E7        29.93F HAZE
SIOUX CITY     CLEAR     51  48  89 CALM      29.91S
SPENCER        CLEAR     51  48  89 NE5       29.96F
STORM LAKE *   CLEAR     55  50  82 NE9       29.94F
$$

IAZ055>058-069>071-079>083-090>094-210900-
   SOUTHWEST IOWA

CITY           SKY/WX    TMP DP  RH WIND       PRES   REMARKS
ATLANTIC *     MOCLDY    63  57  82 NE5       29.90F
AUDUBON *      CLEAR     63  55  77 CALM      29.93F
CLARINDA *     MOCLDY    66  63  88 N5        29.90F
COUNCIL BLFS * PTCLDY    66  57  72 E12       29.88F
CRESTON *      CLOUDY    66  61  82 NE8       29.91F
HARLAN  *      CLEAR     63  57  82 N5        29.94F
LAMONI         MOCLDY    71  66  84 E3        29.89F
RED OAK *      CLOUDY    68  61  77 NE8       29.88F
SHENANDOAH *   PTCLDY    68  61  77 NE5       29.88F
$$

IAZ047>049-059>061-072>074-084-210900-
   CENTRAL IOWA

CITY           SKY/WX    TMP DP  RH WIND       PRES   REMARKS
AMES           CLEAR     64  61  90 N5        29.92S
ANKENY *       PTCLDY    64  61  88 N5        29.91S
BOONE *        MOCLDY    63  57  82 NE6       29.92S
CHARITON *     LGT RAIN  68  66  94 NE6       29.88F
DES MOINES     PTCLDY    69  60  73 NE5       29.89F
GRINNELL*      CLOUDY    67  63  87 NE6       29.92F
KNOXVILLE *    CLOUDY    72  64  78 NE6       29.88F
MARSHALLTOWN   PTCLDY    66  61  84 NE8       29.92R
NEWTON *       PTCLDY    68  63  83 NE10      29.90F
PELLA *        CLOUDY    69  64  84 CALM      29.90F
PERRY *          N/A     63  60  91 N3        29.92S
$$

IAZ004>006-015-016-023>025-035-036-210900-
   NORTH CENTRAL IOWA

CITY           SKY/WX    TMP DP  RH WIND       PRES   REMARKS
ALGONA *       CLEAR     52  52 100 NE6       29.96F
CLARION *      CLEAR     55  55 100 NE7       29.94F
ESTHERVILLE    CLEAR     50  49  96 E6        29.96F
FORT DODGE *   CLEAR     57  53  86 NE5       29.94F
MASON CITY     CLEAR     49  47  93 N8        29.98F
FOREST CITY *    N/A     55  50  82 NE3       29.97F
IOWA FALLS *     N/A     63  58  84 N5        29.95S
$$

IAZ007>011-017>019-026>030-037>042-050>054-066-210900-
   NORTHEAST IOWA

CITY           SKY/WX    TMP DP  RH WIND       PRES   REMARKS
CEDAR RAPIDS   CLOUDY    70  68  93 SE12      29.92R
CHARLES CITY * CLEAR     57  55  94 N6        29.95F
CLINTON *      CLOUDY   N/A N/A N/A W10       29.93R
DECORAH *      CLOUDY    61  59  94 CALM      29.95S
DUBUQUE        CLOUDY    69  65  86 SW3       29.97R
MONTICELLO *   CLOUDY    70  66  88 CALM      29.95R
OELWEIN *      CLOUDY    66  66 100 NE3       29.96R
WATERLOO       CLOUDY    64  61  90 NE5       29.93R
$$

IAZ064-065-067-068-078-210900-
   EAST CENTRAL IOWA

CITY           SKY/WX    TMP DP  RH WIND       PRES   REMARKS
DAVENPORT      CLOUDY    69  64  84 SW18G25   30.01R
IOWA CITY      CLOUDY    71  68  90 S14       29.95R
MUSCATINE *      N/A    N/A N/A N/A S5        29.98F
QUAD CITIES    CLOUDY    70  64  81 S6        29.94R
$$

IAZ062-063-075>077-085>089-095>099-210900-
   SOUTHEAST IOWA

CITY           SKY/WX    TMP DP  RH WIND       PRES   REMARKS
BURLINGTON     CLOUDY    71  68  90 NE13      29.97R
FAIRFIELD *    CLOUDY    70  68  94 SW9G29    29.94F FOG
FORT MADISON * CLOUDY    73  66  78 N13G18    29.97R
KEOKUK *       CLOUDY    77  70  78 SE5       29.92R
OSKALOOSA *    LGT RAIN  72  71  96 SE6       29.90R
OTTUMWA        TSTM      73  71  93 E12       29.90R
WASHINGTON *   HVY RAIN  68  68 100 SE8       29.95F
$$

ABBREVIATIONS USED IN REMARKS
   TC - TEMPERATURES IN CELSIUS
  WCI - WIND CHILL INDEX
   HX - HEAT INDEX
  VSB - VISIBILITY
$$





USA.gov is the U.S. government's official web portal to all federal, state and local government web resources and services.